Regional Weather Roundup
Issued by NWS

Home | Current Version | Previous Version | Graphics & Text | Print | Product List | Glossary Off
Versions: 1 2 3 4 5 6 7 8 9 10 11 12 13 14 15 16 17 18 19 20 21 22 23 24 25 26 27 28 29 30 31 32 33 34 35 36 37 38 39 40 41 42 43 44 45 46 47 48 49 50

000
ASUS43 KMKX 202011
RWRWI

WISCONSIN REGIONAL WEATHER ROUNDUP
NATIONAL WEATHER SERVICE MILWAUKEE/SULLIVAN WI
300 PM CDT SUN APR 20 2014

NOTE: "FAIR" INDICATES FEW OR NO CLOUDS BELOW 12,000 FEET WITH NO
SIGNIFICANT WEATHER AND/OR OBSTRUCTIONS TO VISIBILITY.

WIZ001-002-006>008-014>016-023>028-202100-
NORTHWEST WISCONSIN

CITY           SKY/WX    TMP DP  RH WIND       PRES   REMARKS
SUPERIOR ARPT  SUNNY     64  38  37 CALM      30.00F
ASHLAND        SUNNY     60  42  51 N7        30.01F
HAYWARD        SUNNY     69  28  21 W7        30.00F
SIREN          SUNNY     68  32  26 N3        30.00F
RICE LAKE      MOSUNNY   71  38  29 W8        30.01S
LADYSMITH      MOSUNNY   70  45  41 CALM      30.01F
EAU CLAIRE     PTSUNNY   68  50  52 SW9       30.00F
MENOMONIE      PTCLDY    69  49  48 S6        30.00F
NEW RICHMOND   CLOUDY    70  40  33 SW6       29.99F
OSCEOLA        SUNNY     74  36  25 W3        30.01F
$$

WIZ003>005-009-010-017-018-202100-
NORTH CENTRAL WISCONSIN

CITY           SKY/WX    TMP DP  RH WIND       PRES   REMARKS
WOODRUFF       SUNNY     72  37  27 W7        30.00F
RHINELANDER    CLOUDY    62  48  60 SW6       30.03F
EAGLE RIVER    SUNNY     68  34  28 W10       30.01S
LAND O LAKES   SUNNY     67  31  26 W6        30.01F
PHILLIPS       SUNNY     69  41  36 SW8       30.00S
TOMAHAWK       PTSUNNY   63  49  61 CALM      30.02F
MEDFORD        CLOUDY    58  52  79 S9        30.03F
MERRILL        CLOUDY    61  51  70 CALM      30.03F
$$

WIZ029-030-035-036-043>047-202100-
CENTRAL WISCONSIN

CITY           SKY/WX    TMP DP  RH WIND       PRES   REMARKS
WAUSAU         CLOUDY    56  49  77 S9        30.04S
MOSINEE        CLOUDY    54  52  94 S7        30.07F
MARSHFIELD     CLOUDY    58  52  80 S8        30.04F
STEVENS POINT  CLOUDY    55  49  79 S7        30.06F
WAUPACA        CLOUDY    57  50  77 S5        30.09S
WAUTOMA        LGT RAIN  57  54  88 SW6       30.09S FOG
WISC RAPIDS    CLOUDY    57  52  83 S8        30.07F
CAMP DOUGLAS   LGT RAIN  55  55 100 SE7       30.05F
$$

WIZ011>013-019>022-031-037>040-048>050-202100-
NORTHEAST WISCONSIN

CITY           SKY/WX    TMP DP  RH WIND       PRES   REMARKS
ANTIGO         CLOUDY    58  50  76 SW8       30.05F
STURGEON BAY   CLOUDY    43  37  81 S7        30.10F
GREEN BAY      LGT RAIN  55  48  77 CALM      30.09F
MANITOWOC      PTSUNNY   49  37  63 E6        30.11F
APPLETON       CLOUDY    55  46  71 VRB5      30.09F
CLINTONVILLE   CLOUDY    52  50  93 SW3       30.08F
OSHKOSH        LGT RAIN  63  48  58 SW3       30.08F
$$

WIZ032>034-041-042-053>061-202100-
SOUTHWEST WISCONSIN

CITY           SKY/WX    TMP DP  RH WIND       PRES   REMARKS
LA CROSSE      CLOUDY    57  54  89 S9        30.04S
SPARTA         CLOUDY    57  54  89 S3        30.06R
VIROQUA        CLOUDY    55  55  97 S7        30.05F
BOSCOBEL       CLOUDY    63  57  81 E5        30.06F
PRAIRIE DU CHI LGT RAIN  64  55  73 CALM      30.05F
PLATTEVILLE    FAIR      77  44  30 SW13      30.06F
$$

WIZ056-057-062-063-064-067-068-202100-
SOUTH CENTRAL WISCONSIN

CITY           SKY/WX    TMP DP  RH WIND       PRES   REMARKS
BARABOO/DELLS  RAIN      62  49  61 CALM      30.08S
LONE ROCK      CLOUDY    69  49  48 NW7       30.07S
WATERTOWN      MOSUNNY   75  45  34 SW9       30.06F
MADISON        CLOUDY    77  43  29 SW3       30.06F
MIDDLETON      MOCLDY    75  40  28 NW6       30.06S
MONROE         MOSUNNY   79  44  28 SW9G22    30.06F
JANESVILLE     SUNNY     81  37  21 W13G18    30.06F
$$

WIZ051-052-058>065-066-070>072-202100-
SOUTHEAST WISCONSIN

CITY           SKY/WX    TMP DP  RH WIND       PRES   REMARKS
MILWAUKEE      PTSUNNY   71  41  33 SE14      30.09F
WAUKESHA       MOSUNNY   73  43  33 SW9G16    30.09F
MILWAUKEE/TIMM SUNNY     77  37  24 SW14G20   30.08F
RACINE         MOSUNNY   64  37  36 S14       30.11F
BURLINGTON     MOSUNNY   77  42  28 SW14G22   30.08F
KENOSHA        MOSUNNY   77  42  28 S14       30.09F
FOND DU LAC    LGT RAIN  67  46  47 S5        30.08F
SHEBOYGAN      PTSUNNY   62  42  47 SE5       30.10F
WEST BEND      CLOUDY    73  37  27 W8        30.07F
JUNEAU         PTSUNNY   72  35  25 W5        30.08F
$$

LSZ147-162-202100-
LAKE SUPERIOR

STATION/POSITION TIME  TEMP    WIND        PRES    WAVE
                       AIR SEA DIR/SP/G            HT/PER
                 (UTC) (F)     (DEG/KT/KT) (MB)    (FT/S)
DEVILS ISLAND    2000   44        CALM     1017.2F
PORT WING        1940   40     360/  2/  4 1016.9S
SAXON HARBOR     1900             CALM     1017.3F
$$

LMZ867-665-643>646-202100-
LAKE MICHIGAN

STATION/POSITION TIME  TEMP    WIND        PRES    WAVE
                       AIR SEA DIR/SP/G            HT/PER
                 (UTC) (F)     (DEG/KT/KT) (MB)    (FT/S)
NORTHPORT PIER   1920   39     160/  9/ 22 1018.6F
SISTER BAY       1909   41     150/  9/ 13   N/A
KEWAUNEE LAKESHO 1900   39     170/ 10/ 12 1020.7F
SHEBOYGAN LAKESH 2000   43     150/ 11/ 11 1020.1F
PORT WASHINGTON  1940   47     170/  3/  6 1019.6F
MILWAUKEE LAKESH 1900   45     140/ 19/ 22   N/A
KENOSHA   LAKESH 2000   49     170/ 14/ 16   N/A
$$

TC  - TEMPERATURE IN CELSIUS
VSB - VISIBILITY IN STATUTE MILES
WCI - WIND CHILL INDEX
HX  - HEAT INDEX




USA.gov is the U.S. government's official web portal to all federal, state and local government web resources and services.